Valentine, NE

3:01 PM CDT on March 23, 2017 (GMT -0500)
Miller Field

Weather History for KVTN - January, 2014

Change the Weather History Date:

Sunday, January 5, 2014

  Actual Average Record
Temperature  
Mean Temperature -2 °F 23 °F  
Max Temperature 6 °F 36 °F 69 °F (2012)
Min Temperature -11 °F 10 °F -29 °F (1988)
Degree Days  
Heating Degree Days 67 42  
Month to date heating degree days 231 210  
Since 1 July heating degree days 3223 3105  
Cooling Degree Days 0 0  
Month to date cooling degree days 0 0  
Year to date cooling degree days 0 0  
Moisture  
Dew Point -11 °F    
Average Humidity 65    
Maximum Humidity 79    
Minimum Humidity 50    
Precipitation  
Precipitation T in 0.00 in 0.25 in (1894)
Month to date precipitation T 0.04  
Year to date precipitation T 0.04  
Snow  
Snow T in 0.10 in 4.00 in (1982)
Month to date snowfall 0.1 0.7  
Since 1 July snowfall 19.1 13.4  
Snow Depth T in    
Sea Level Pressure  
Sea Level Pressure 30.52 in    
Wind  
Wind Speed 14 mph (NNW)    
Max Wind Speed 30 mph    
Max Gust Speed 40 mph    
Visibility 6 miles    
Events Snow    
T = Trace of Precipitation, MM = Missing Value Source: NWS Daily Summary

Daily Weather History Graph

Daily Weather History Graph

Search for Another Location

Airport or City:

Trip Planner

Search our weather history database for the weather conditions in past years. The results will help you decide how hot, cold, wet, or windy it might be!

Date:

Astronomy

Jan. 05, 2014 Rise Set
Actual Time 8:13 AM CST 5:22 PM CST
Civil Twilight 7:41 AM CST 5:54 PM CST
Nautical Twilight 7:05 AM CST 6:29 PM CST
Astronomical Twilight 6:31 AM CST 7:04 PM CST
Moon 10:48 AM CST (1/5) 11:00 PM CST (1/5)
Length of Visible Light 10h 13m
Length of Day
9h 09m
Waxing Crescent, 25% of the Moon is Illuminated
Jan 5
Waxing Crescent
Jan 7
First Quarter
Jan 15
Full
Jan 23
Last Quarter
Jan 30
New

Hourly Weather History & Observations

Time (CST) Temp. Windchill Dew Point Humidity Pressure Visibility Wind Dir Wind Speed Gust Speed Precip Events Conditions
12:52 AM 5.0 °F -10.0 °F -4.0 °F 66% 30.40 in 10.0 mi North 10.4 mph - N/A   Scattered Clouds
1:52 AM 3.9 °F -10.4 °F -5.1 °F 66% 30.41 in 10.0 mi North 9.2 mph - N/A   Overcast
2:52 AM 3.9 °F -11.3 °F -5.1 °F 66% 30.43 in 10.0 mi North 10.4 mph - N/A   Overcast
3:52 AM 3.0 °F -9.3 °F -6.0 °F 66% 30.44 in 10.0 mi NNW 6.9 mph - N/A   Overcast
4:52 AM 1.9 °F -9.2 °F -5.1 °F 72% 30.45 in 10.0 mi NNW 5.8 mph - N/A   Mostly Cloudy
5:52 AM 3.0 °F -8.0 °F -4.0 °F 73% 30.46 in 10.0 mi NW 5.8 mph - N/A   Partly Cloudy
6:52 AM 3.0 °F -9.3 °F -4.0 °F 73% 30.48 in 10.0 mi NW 6.9 mph - N/A   Clear
7:52 AM 1.9 °F -7.6 °F -4.0 °F 76% 30.49 in 10.0 mi NNW 4.6 mph - N/A   Mostly Cloudy
8:52 AM 3.0 °F -11.5 °F -4.0 °F 73% 30.52 in 10.0 mi NNW 9.2 mph - N/A   Overcast
9:52 AM 3.9 °F -11.3 °F -4.0 °F 70% 30.55 in 4.0 mi North 10.4 mph - N/A   Haze
10:08 AM 3.2 °F -15.3 °F -5.8 °F 66% 30.38 in 3.0 mi North 15.0 mph - N/A   Haze
10:24 AM 3.2 °F -13.9 °F -5.8 °F 66% 30.38 in 8.0 mi NNW 12.7 mph - N/A   Overcast
10:52 AM 3.9 °F -13.0 °F -6.0 °F 64% 30.57 in 9.0 mi NNW 12.7 mph - N/A   Mostly Cloudy
11:10 AM 3.2 °F -14.6 °F -5.8 °F 66% 30.40 in 8.0 mi North 13.8 mph - N/A   Overcast
11:23 AM 3.2 °F -13.9 °F -7.6 °F 61% 30.41 in 8.0 mi North 12.7 mph 23.0 mph N/A   Overcast
11:47 AM 3.2 °F -13.9 °F -5.8 °F 66% 30.40 in 2.5 mi NNW 12.7 mph - 0.00 in Snow Light Snow
11:52 AM 3.9 °F -16.1 °F -6.0 °F 64% 30.58 in 3.0 mi North 18.4 mph 25.3 mph 0.00 in Snow Light Snow
11:59 AM 3.2 °F -16.5 °F -5.8 °F 66% 30.39 in 2.5 mi NNW 17.3 mph 25.3 mph 0.00 in   Haze
12:09 PM 3.2 °F -17.1 °F -7.6 °F 61% 30.40 in 1.5 mi NNW 18.4 mph 24.2 mph 0.00 in Snow Light Snow
12:13 PM 1.4 °F -19.4 °F -5.8 °F 72% 30.39 in 0.8 mi NNW 18.4 mph 24.2 mph 0.00 in Snow Light Snow
12:21 PM 3.2 °F -16.5 °F -7.6 °F 61% 30.39 in 1.2 mi NNW 17.3 mph 27.6 mph 0.00 in Snow Light Snow
12:30 PM 3.2 °F -17.6 °F -7.6 °F 61% 30.39 in 2.5 mi NNW 19.6 mph 28.8 mph 0.00 in Snow Light Snow
12:33 PM 3.2 °F -19.9 °F -7.6 °F 61% 30.39 in 4.0 mi NNW 25.3 mph 32.2 mph 0.00 in Snow Light Snow
12:50 PM 3.2 °F -16.5 °F -7.6 °F 61% 30.39 in 1.5 mi NNW 17.3 mph 28.8 mph 0.00 in Snow Light Snow
12:52 PM 1.9 °F -18.1 °F -7.1 °F 66% 30.58 in 1.5 mi North 17.3 mph 28.8 mph 0.00 in Snow Light Snow
1:01 PM 1.4 °F -21.0 °F -7.6 °F 66% 30.39 in 2.0 mi NNW 21.9 mph 34.5 mph 0.00 in Snow Light Snow
1:14 PM 1.4 °F -20.5 °F -9.4 °F 61% 30.39 in 9.0 mi NNW 20.7 mph 27.6 mph 0.00 in   Overcast
1:48 PM -0.4 °F -25.2 °F -11.2 °F 60% 30.41 in 1.8 mi NNW 26.5 mph 35.7 mph 0.00 in Snow Light Snow
1:52 PM -0.9 °F -24.1 °F -11.9 °F 60% 30.61 in 1.8 mi NNW 21.9 mph 34.5 mph 0.00 in Snow Light Snow
1:57 PM -0.4 °F -24.7 °F -11.2 °F 60% 30.42 in 3.0 mi NNW 25.3 mph 34.5 mph 0.00 in   Overcast
2:04 PM -0.4 °F -22.3 °F -13.0 °F 55% 30.42 in 6.0 mi NNW 19.6 mph 35.7 mph 0.00 in   Overcast
2:24 PM -2.2 °F -26.7 °F -11.2 °F 66% 30.43 in 1.8 mi NNW 24.2 mph 34.5 mph 0.00 in Snow Light Snow
2:32 PM -0.4 °F -24.3 °F -13.0 °F 55% 30.43 in 3.0 mi NNW 24.2 mph 35.7 mph 0.00 in   Overcast
2:52 PM -2.0 °F -24.4 °F -14.1 °F 57% 30.64 in 6.0 mi NNW 19.6 mph 34.5 mph 0.00 in   Overcast
3:52 PM -4.0 °F -28.1 °F -18.9 °F 49% 30.71 in 10.0 mi NW 21.9 mph 35.7 mph 0.00 in   Overcast
4:43 PM -7.6 °F -33.4 °F -20.2 °F 54% 30.47 in 10.0 mi NW 23.0 mph 32.2 mph 0.00 in   Mostly Cloudy
4:52 PM -7.1 °F -33.2 °F -20.9 °F 51% 30.74 in 10.0 mi NW 24.2 mph 36.8 mph 0.00 in   Scattered Clouds
5:52 PM -8.0 °F -30.3 °F -17.0 °F 65% 30.76 in 4.0 mi NW 16.1 mph 23.0 mph N/A   Haze
6:37 PM -9.4 °F -34.1 °F -23.8 °F 49% 30.49 in 10.0 mi NW 19.6 mph 28.8 mph N/A   Scattered Clouds
6:52 PM -9.9 °F -36.5 °F -24.0 °F 50% 30.76 in 10.0 mi NW 23.0 mph 33.4 mph N/A   Clear
7:52 PM -9.9 °F -36.5 °F -23.1 °F 52% 30.76 in 10.0 mi NW 23.0 mph 31.1 mph N/A   Clear
8:52 PM -11.0 °F -34.2 °F -24.0 °F 53% 30.75 in 10.0 mi NW 16.1 mph 26.5 mph N/A   Clear
9:52 PM -9.9 °F -36.5 °F -23.1 °F 52% 30.72 in 10.0 mi NW 23.0 mph 29.9 mph N/A   Clear
10:52 PM -9.9 °F -31.3 °F -22.0 °F 55% 30.72 in 10.0 mi NW 13.8 mph 21.9 mph N/A   Clear
11:52 PM -9.0 °F -30.2 °F -20.9 °F 56% 30.69 in 10.0 mi NW 13.8 mph 23.0 mph N/A   Partly Cloudy